Вернуться в каталог

WESTFORD NEEDLES

АктивенHEO
NORAD 2362·DEBRIS·🇺🇸 United States

Запущен May 9, 1963 с Vandenberg Space Force Base

Loading…

Ближайшие Пролёты (ближайшие 24 часа)

TLE

СвежийSource: Space-Track

Эпоха: Sep 14, 2026, 01:11 UTC

1 02362U 63014M   26257.04948139  .00000697  00000-0  55245-2 0  9992
2 02362  85.1143 297.9192 2583165 279.5850  52.5309  8.86409842 14628

Отслеживайте WESTFORD NEEDLES в реальном времени с AllMySat

Download on the App Store